<?xml version='1.0' encoding='UTF-8'?>
<gpx xmlns="http://www.topografix.com/GPX/1/1" creator="www.balnam.be" version="1.1" xmlns:xsi="http://www.w3.org/2001/XMLSchema-instance" xsi:schemaLocation="http://www.topografix.com/GPX/1/1 http://www.topografix.com/GPX/1/1/gpx.xsd">
<trk>
<name>hmmmc12</name>
<cmt>v</cmt>
<desc>Macon Chemin n°12 </desc>
<link href="https://chemins.be/macon/chemin/12"/><trkseg>
<trkpt lat="50.037996" lon="4.191534"><time>2026-05-03T09:16:21Z</time></trkpt>
<trkpt lat="50.037100" lon="4.190922"><time>2026-05-03T09:26:21Z</time></trkpt>
<trkpt lat="50.037052" lon="4.189833"><time>2026-05-03T09:36:21Z</time></trkpt>
<trkpt lat="50.036804" lon="4.188342"><time>2026-05-03T09:46:21Z</time></trkpt>
<trkpt lat="50.036832" lon="4.187838"><time>2026-05-03T09:56:21Z</time></trkpt>
<trkpt lat="50.037414" lon="4.187639"><time>2026-05-03T10:06:21Z</time></trkpt>
</trkseg>
</trk>
<trk>
<name>hmmmc14</name>
<cmt>v</cmt>
<desc>Macon Chemin n°14 Rue de la Laiterie</desc>
<link href="https://chemins.be/macon/chemin/14"/><trkseg>
<trkpt lat="50.051779" lon="4.209014"><time>2026-05-03T09:16:21Z</time></trkpt>
<trkpt lat="50.051726" lon="4.208901"><time>2026-05-03T09:26:21Z</time></trkpt>
<trkpt lat="50.051722" lon="4.208630"><time>2026-05-03T09:36:21Z</time></trkpt>
</trkseg></trk>
<trk>
<name>hmmmc14</name>
<cmt>r</cmt>
<desc>Macon Chemin n°14 Rue de la Laiterie</desc>
<link href="https://chemins.be/macon/chemin/14"/><trkseg>
<trkpt lat="50.051722" lon="4.208630"><time>2026-05-03T09:36:21Z</time></trkpt>
<trkpt lat="50.051154" lon="4.207757"><time>2026-05-03T09:46:21Z</time></trkpt>
</trkseg>
</trk>
<trk>
<name>hmmmc16</name>
<cmt>v</cmt>
<desc>Macon Chemin n°16 </desc>
<link href="https://chemins.be/macon/chemin/16"/><trkseg>
<trkpt lat="50.048245" lon="4.196885"><time>2026-05-03T09:16:21Z</time></trkpt>
<trkpt lat="50.047983" lon="4.195677"><time>2026-05-03T09:26:21Z</time></trkpt>
</trkseg></trk>
<trk>
<name>hmmmc16</name>
<cmt>q</cmt>
<desc>Macon Chemin n°16 </desc>
<link href="https://chemins.be/macon/chemin/16"/><trkseg>
<trkpt lat="50.047983" lon="4.195677"><time>2026-05-03T09:26:21Z</time></trkpt>
<trkpt lat="50.047727" lon="4.194962"><time>2026-05-03T09:36:21Z</time></trkpt>
<trkpt lat="50.047485" lon="4.194568"><time>2026-05-03T09:46:21Z</time></trkpt>
<trkpt lat="50.047253" lon="4.194275"><time>2026-05-03T09:56:21Z</time></trkpt>
<trkpt lat="50.046862" lon="4.190550"><time>2026-05-03T10:06:21Z</time></trkpt>
<trkpt lat="50.045771" lon="4.187838"><time>2026-05-03T10:16:21Z</time></trkpt>
</trkseg>
</trk>
<trk>
<name>hmmmc17</name>
<cmt>v</cmt>
<desc>Macon Chemin n°17 </desc>
<link href="https://chemins.be/macon/chemin/17"/><trkseg>
<trkpt lat="50.055373" lon="4.208487"><time>2026-05-03T09:16:21Z</time></trkpt>
<trkpt lat="50.055552" lon="4.207671"><time>2026-05-03T09:26:21Z</time></trkpt>
<trkpt lat="50.055855" lon="4.207148"><time>2026-05-03T09:36:21Z</time></trkpt>
<trkpt lat="50.056164" lon="4.206903"><time>2026-05-03T09:46:21Z</time></trkpt>
<trkpt lat="50.056244" lon="4.206435"><time>2026-05-03T09:56:21Z</time></trkpt>
</trkseg>
</trk>
<trk>
<name>hmmmc18</name>
<cmt>v</cmt>
<desc>Macon Chemin n°18 </desc>
<link href="https://chemins.be/macon/chemin/18"/><trkseg>
<trkpt lat="50.055011" lon="4.211857"><time>2026-05-03T09:16:21Z</time></trkpt>
<trkpt lat="50.055484" lon="4.213194"><time>2026-05-03T09:26:21Z</time></trkpt>
<trkpt lat="50.055489" lon="4.214267"><time>2026-05-03T09:36:21Z</time></trkpt>
<trkpt lat="50.056017" lon="4.216220"><time>2026-05-03T09:46:21Z</time></trkpt>
</trkseg>
</trk>
<trk>
<name>hmmmc19</name>
<cmt>v</cmt>
<desc>Macon Chemin n°19 </desc>
<link href="https://chemins.be/macon/chemin/19"/><trkseg>
<trkpt lat="50.052792" lon="4.214128"><time>2026-05-03T09:16:21Z</time></trkpt>
<trkpt lat="50.052748" lon="4.214574"><time>2026-05-03T09:26:21Z</time></trkpt>
<trkpt lat="50.053172" lon="4.217218"><time>2026-05-03T09:36:21Z</time></trkpt>
<trkpt lat="50.053723" lon="4.221715"><time>2026-05-03T09:46:21Z</time></trkpt>
<trkpt lat="50.053574" lon="4.223363"><time>2026-05-03T09:56:21Z</time></trkpt>
<trkpt lat="50.053525" lon="4.223904"><time>2026-05-03T10:06:21Z</time></trkpt>
<trkpt lat="50.053674" lon="4.226402"><time>2026-05-03T10:16:21Z</time></trkpt>
</trkseg>
</trk>
<trk>
<name>hmmmc2</name>
<cmt>v</cmt>
<desc>Macon Chemin n°2 </desc>
<link href="https://chemins.be/macon/chemin/2"/><trkseg>
<trkpt lat="50.047133" lon="4.224097"><time>2026-05-03T09:16:21Z</time></trkpt>
<trkpt lat="50.046890" lon="4.224561"><time>2026-05-03T09:26:21Z</time></trkpt>
<trkpt lat="50.046559" lon="4.229384"><time>2026-05-03T09:36:21Z</time></trkpt>
</trkseg>
</trk>
<trk>
<name>hmmmc21</name>
<cmt>v</cmt>
<desc>Macon Chemin n°21 </desc>
<link href="https://chemins.be/macon/chemin/21"/><trkseg>
<trkpt lat="50.046829" lon="4.208249"><time>2026-05-03T09:16:21Z</time></trkpt>
<trkpt lat="50.046769" lon="4.207932"><time>2026-05-03T09:26:21Z</time></trkpt>
<trkpt lat="50.046649" lon="4.207956"><time>2026-05-03T09:36:21Z</time></trkpt>
<trkpt lat="50.046333" lon="4.207322"><time>2026-05-03T09:46:21Z</time></trkpt>
<trkpt lat="50.046289" lon="4.206558"><time>2026-05-03T09:56:21Z</time></trkpt>
</trkseg></trk>
<trk>
<name>hmmmc21</name>
<cmt>q</cmt>
<desc>Macon Chemin n°21 </desc>
<link href="https://chemins.be/macon/chemin/21"/><trkseg>
<trkpt lat="50.046289" lon="4.206558"><time>2026-05-03T09:56:21Z</time></trkpt>
<trkpt lat="50.045779" lon="4.206576"><time>2026-05-03T10:06:21Z</time></trkpt>
<trkpt lat="50.045385" lon="4.205957"><time>2026-05-03T10:16:21Z</time></trkpt>
<trkpt lat="50.044718" lon="4.205923"><time>2026-05-03T10:26:21Z</time></trkpt>
</trkseg>
</trk>
<trk>
<name>hmmmc22</name>
<cmt>v</cmt>
<desc>Macon Chemin n°22 </desc>
<link href="https://chemins.be/macon/chemin/22"/><trkseg>
<trkpt lat="50.040451" lon="4.198462"><time>2026-05-03T09:16:21Z</time></trkpt>
<trkpt lat="50.041247" lon="4.198749"><time>2026-05-03T09:26:21Z</time></trkpt>
</trkseg>
</trk>
<trk>
<name>hmmmc24</name>
<cmt>v</cmt>
<desc>Macon Chemin n°24 </desc>
<link href="https://chemins.be/macon/chemin/24"/><trkseg>
<trkpt lat="50.041490" lon="4.193749"><time>2026-05-03T09:16:21Z</time></trkpt>
<trkpt lat="50.040746" lon="4.192360"><time>2026-05-03T09:26:21Z</time></trkpt>
<trkpt lat="50.039278" lon="4.191700"><time>2026-05-03T09:36:21Z</time></trkpt>
<trkpt lat="50.038055" lon="4.191614"><time>2026-05-03T09:46:21Z</time></trkpt>
</trkseg>
</trk>
<trk>
<name>hmmmc27</name>
<cmt>v</cmt>
<desc>Macon Chemin n°27 </desc>
<link href="https://chemins.be/macon/chemin/27"/><trkseg>
<trkpt lat="50.044883" lon="4.211982"><time>2026-05-03T09:16:21Z</time></trkpt>
<trkpt lat="50.044453" lon="4.212085"><time>2026-05-03T09:26:21Z</time></trkpt>
</trkseg>
</trk>
<trk>
<name>hmmmc28</name>
<cmt>d</cmt>
<desc>Macon Chemin n°28 </desc>
<link href="https://chemins.be/macon/chemin/28"/><trkseg>
<trkpt lat="50.051749" lon="4.208662"><time>2026-05-03T09:16:21Z</time></trkpt>
<trkpt lat="50.052095" lon="4.208245"><time>2026-05-03T09:26:21Z</time></trkpt>
<trkpt lat="50.052213" lon="4.208208"><time>2026-05-03T09:36:21Z</time></trkpt>
<trkpt lat="50.052555" lon="4.208655"><time>2026-05-03T09:46:21Z</time></trkpt>
<trkpt lat="50.052557" lon="4.208941"><time>2026-05-03T09:56:21Z</time></trkpt>
</trkseg>
</trk>
<trk>
<name>hmmmc30</name>
<cmt>v</cmt>
<desc>Macon Sentier n°30 </desc>
<link href="https://chemins.be/macon/sentier/30"/><trkseg>
<trkpt lat="50.051871" lon="4.204197"><time>2026-05-03T09:16:21Z</time></trkpt>
<trkpt lat="50.052580" lon="4.203483"><time>2026-05-03T09:26:21Z</time></trkpt>
<trkpt lat="50.053981" lon="4.202459"><time>2026-05-03T09:36:21Z</time></trkpt>
</trkseg></trk>
<trk>
<name>hmmmc30</name>
<cmt>q</cmt>
<desc>Macon Sentier n°30 </desc>
<link href="https://chemins.be/macon/sentier/30"/><trkseg>
<trkpt lat="50.053981" lon="4.202459"><time>2026-05-03T09:36:21Z</time></trkpt>
<trkpt lat="50.055310" lon="4.201407"><time>2026-05-03T09:46:21Z</time></trkpt>
<trkpt lat="50.056855" lon="4.200061"><time>2026-05-03T09:56:21Z</time></trkpt>
</trkseg>
</trk>
<trk>
<name>hmmmc31</name>
<cmt>q</cmt>
<desc>Macon Sentier n°31 </desc>
<link href="https://chemins.be/macon/sentier/31"/><trkseg>
<trkpt lat="50.043537" lon="4.174967"><time>2026-05-03T09:16:21Z</time></trkpt>
<trkpt lat="50.043583" lon="4.176026"><time>2026-05-03T09:26:21Z</time></trkpt>
<trkpt lat="50.043863" lon="4.176212"><time>2026-05-03T09:36:21Z</time></trkpt>
<trkpt lat="50.044332" lon="4.177428"><time>2026-05-03T09:46:21Z</time></trkpt>
<trkpt lat="50.045232" lon="4.177907"><time>2026-05-03T09:56:21Z</time></trkpt>
<trkpt lat="50.046518" lon="4.179752"><time>2026-05-03T10:06:21Z</time></trkpt>
</trkseg>
</trk>
<trk>
<name>hmmmc32</name>
<cmt>q</cmt>
<desc>Macon Sentier n°32 </desc>
<link href="https://chemins.be/macon/sentier/32"/><trkseg>
<trkpt lat="50.051894" lon="4.206489"><time>2026-05-03T09:16:21Z</time></trkpt>
<trkpt lat="50.053498" lon="4.207167"><time>2026-05-03T09:26:21Z</time></trkpt>
<trkpt lat="50.053806" lon="4.207528"><time>2026-05-03T09:36:21Z</time></trkpt>
<trkpt lat="50.054848" lon="4.206978"><time>2026-05-03T09:46:21Z</time></trkpt>
<trkpt lat="50.055399" lon="4.206051"><time>2026-05-03T09:56:21Z</time></trkpt>
<trkpt lat="50.056330" lon="4.202137"><time>2026-05-03T10:06:21Z</time></trkpt>
<trkpt lat="50.057052" lon="4.200567"><time>2026-05-03T10:16:21Z</time></trkpt>
</trkseg>
</trk>
<trk>
<name>hmmmc33</name>
<cmt>q</cmt>
<desc>Macon Sentier n°33 </desc>
<link href="https://chemins.be/macon/sentier/33"/><trkseg>
<trkpt lat="50.053224" lon="4.208946"><time>2026-05-03T09:16:21Z</time></trkpt>
<trkpt lat="50.053304" lon="4.207543"><time>2026-05-03T09:26:21Z</time></trkpt>
<trkpt lat="50.053445" lon="4.207757"><time>2026-05-03T09:36:21Z</time></trkpt>
<trkpt lat="50.053789" lon="4.207525"><time>2026-05-03T09:46:21Z</time></trkpt>
</trkseg>
</trk>
<trk>
<name>hmmmc34</name>
<cmt>v</cmt>
<desc>Macon Sentier n°34 </desc>
<link href="https://chemins.be/macon/sentier/34"/><trkseg>
<trkpt lat="50.054278" lon="4.208937"><time>2026-05-03T09:16:21Z</time></trkpt>
<trkpt lat="50.052471" lon="4.208957"><time>2026-05-03T09:26:21Z</time></trkpt>
</trkseg>
</trk>
<trk>
<name>hmmmc35</name>
<cmt>q</cmt>
<desc>Macon Sentier n°35 </desc>
<link href="https://chemins.be/macon/sentier/35"/><trkseg>
<trkpt lat="50.054486" lon="4.208920"><time>2026-05-03T09:16:21Z</time></trkpt>
<trkpt lat="50.054431" lon="4.208433"><time>2026-05-03T09:26:21Z</time></trkpt>
<trkpt lat="50.054477" lon="4.207908"><time>2026-05-03T09:36:21Z</time></trkpt>
</trkseg>
</trk>
<trk>
<name>hmmmc36</name>
<cmt>q</cmt>
<desc>Macon Sentier n°36 </desc>
<link href="https://chemins.be/macon/sentier/36"/><trkseg>
<trkpt lat="50.055514" lon="4.208457"><time>2026-05-03T09:16:21Z</time></trkpt>
<trkpt lat="50.057123" lon="4.207819"><time>2026-05-03T09:26:21Z</time></trkpt>
<trkpt lat="50.058046" lon="4.207597"><time>2026-05-03T09:36:21Z</time></trkpt>
</trkseg>
</trk>
<trk>
<name>hmmmc37</name>
<cmt>q</cmt>
<desc>Macon Sentier n°37 </desc>
<link href="https://chemins.be/macon/sentier/37"/><trkseg>
<trkpt lat="50.050704" lon="4.217334"><time>2026-05-03T09:16:21Z</time></trkpt>
<trkpt lat="50.051917" lon="4.221368"><time>2026-05-03T09:26:21Z</time></trkpt>
<trkpt lat="50.052721" lon="4.222381"><time>2026-05-03T09:36:21Z</time></trkpt>
<trkpt lat="50.053427" lon="4.226226"><time>2026-05-03T09:46:21Z</time></trkpt>
</trkseg>
</trk>
<trk>
<name>hmmmc38</name>
<cmt>q</cmt>
<desc>Macon Sentier n°38 </desc>
<link href="https://chemins.be/macon/sentier/38"/><trkseg>
<trkpt lat="50.046383" lon="4.210793"><time>2026-05-03T09:16:21Z</time></trkpt>
<trkpt lat="50.046394" lon="4.211566"><time>2026-05-03T09:26:21Z</time></trkpt>
<trkpt lat="50.045531" lon="4.214055"><time>2026-05-03T09:36:21Z</time></trkpt>
<trkpt lat="50.044377" lon="4.217385"><time>2026-05-03T09:46:21Z</time></trkpt>
</trkseg>
</trk>
<trk>
<name>hmmmc39</name>
<cmt>q</cmt>
<desc>Macon Sentier n°39 </desc>
<link href="https://chemins.be/macon/sentier/39"/><trkseg>
<trkpt lat="50.043557" lon="4.214782"><time>2026-05-03T09:16:21Z</time></trkpt>
<trkpt lat="50.043777" lon="4.214787"><time>2026-05-03T09:26:21Z</time></trkpt>
<trkpt lat="50.045770" lon="4.213330"><time>2026-05-03T09:36:21Z</time></trkpt>
</trkseg>
</trk>
<trk>
<name>hmmmc4</name>
<cmt>d</cmt>
<desc>Macon Chemin n°4 </desc>
<link href="https://chemins.be/macon/chemin/4"/><trkseg>
<trkpt lat="50.058987" lon="4.215000"><time>2026-05-03T09:16:21Z</time></trkpt>
<trkpt lat="50.059402" lon="4.214754"><time>2026-05-03T09:26:21Z</time></trkpt>
<trkpt lat="50.059783" lon="4.213850"><time>2026-05-03T09:36:21Z</time></trkpt>
</trkseg>
</trk>
<trk>
<name>hmmmc40</name>
<cmt>r</cmt>
<desc>Macon Sentier n°40 Rue Pionveau</desc>
<link href="https://chemins.be/macon/sentier/40"/><trkseg>
<trkpt lat="50.042099" lon="4.205250"><time>2026-05-03T09:16:21Z</time></trkpt>
<trkpt lat="50.042010" lon="4.205320"><time>2026-05-03T09:26:21Z</time></trkpt>
<trkpt lat="50.040146" lon="4.203512"><time>2026-05-03T09:36:21Z</time></trkpt>
<trkpt lat="50.038994" lon="4.202636"><time>2026-05-03T09:46:21Z</time></trkpt>
</trkseg></trk>
<trk>
<name>hmmmc40</name>
<cmt>v</cmt>
<desc>Macon Sentier n°40 Rue Pionveau</desc>
<link href="https://chemins.be/macon/sentier/40"/><trkseg>
<trkpt lat="50.038994" lon="4.202636"><time>2026-05-03T09:46:21Z</time></trkpt>
<trkpt lat="50.038391" lon="4.202122"><time>2026-05-03T09:56:21Z</time></trkpt>
</trkseg>
</trk>
<trk>
<name>hmmmc41</name>
<cmt>v</cmt>
<desc>Macon Sentier n°41 </desc>
<link href="https://chemins.be/macon/sentier/41"/><trkseg>
<trkpt lat="50.039009" lon="4.200863"><time>2026-05-03T09:16:21Z</time></trkpt>
<trkpt lat="50.038976" lon="4.202525"><time>2026-05-03T09:26:21Z</time></trkpt>
<trkpt lat="50.039257" lon="4.204297"><time>2026-05-03T09:36:21Z</time></trkpt>
<trkpt lat="50.039242" lon="4.206418"><time>2026-05-03T09:46:21Z</time></trkpt>
</trkseg>
</trk>
<trk>
<name>hmmmc42</name>
<cmt>q</cmt>
<desc>Macon Sentier n°42 </desc>
<link href="https://chemins.be/macon/sentier/42"/><trkseg>
<trkpt lat="50.044834" lon="4.204695"><time>2026-05-03T09:16:21Z</time></trkpt>
<trkpt lat="50.045440" lon="4.205905"><time>2026-05-03T09:26:21Z</time></trkpt>
<trkpt lat="50.045804" lon="4.206626"><time>2026-05-03T09:36:21Z</time></trkpt>
<trkpt lat="50.046311" lon="4.207193"><time>2026-05-03T09:46:21Z</time></trkpt>
</trkseg>
</trk>
<trk>
<name>hmmmc43</name>
<cmt>q</cmt>
<desc>Macon Sentier n°43 </desc>
<link href="https://chemins.be/macon/sentier/43"/><trkseg>
<trkpt lat="50.050026" lon="4.205931"><time>2026-05-03T09:16:21Z</time></trkpt>
<trkpt lat="50.047325" lon="4.205330"><time>2026-05-03T09:26:21Z</time></trkpt>
<trkpt lat="50.045638" lon="4.202979"><time>2026-05-03T09:36:21Z</time></trkpt>
<trkpt lat="50.044641" lon="4.202240"><time>2026-05-03T09:46:21Z</time></trkpt>
<trkpt lat="50.043458" lon="4.201114"><time>2026-05-03T09:56:21Z</time></trkpt>
<trkpt lat="50.040495" lon="4.198945"><time>2026-05-03T10:06:21Z</time></trkpt>
</trkseg>
</trk>
<trk>
<name>hmmmc44</name>
<cmt>q</cmt>
<desc>Macon Sentier n°44 </desc>
<link href="https://chemins.be/macon/sentier/44"/><trkseg>
<trkpt lat="50.041648" lon="4.203803"><time>2026-05-03T09:16:21Z</time></trkpt>
<trkpt lat="50.044800" lon="4.204592"><time>2026-05-03T09:26:21Z</time></trkpt>
<trkpt lat="50.045638" lon="4.205116"><time>2026-05-03T09:36:21Z</time></trkpt>
<trkpt lat="50.047308" lon="4.205305"><time>2026-05-03T09:46:21Z</time></trkpt>
</trkseg>
</trk>
<trk>
<name>hmmmc45</name>
<cmt>v</cmt>
<desc>Macon Sentier n°45 </desc>
<link href="https://chemins.be/macon/sentier/45"/><trkseg>
<trkpt lat="50.049395" lon="4.208353"><time>2026-05-03T09:16:21Z</time></trkpt>
<trkpt lat="50.049447" lon="4.207068"><time>2026-05-03T09:26:21Z</time></trkpt>
<trkpt lat="50.049519" lon="4.206872"><time>2026-05-03T09:36:21Z</time></trkpt>
<trkpt lat="50.049735" lon="4.206983"><time>2026-05-03T09:46:21Z</time></trkpt>
<trkpt lat="50.050129" lon="4.206061"><time>2026-05-03T09:56:21Z</time></trkpt>
</trkseg>
</trk>
<trk>
<name>hmmmc46</name>
<cmt>q</cmt>
<desc>Macon Sentier n°46 </desc>
<link href="https://chemins.be/macon/sentier/46"/><trkseg>
<trkpt lat="50.043607" lon="4.193965"><time>2026-05-03T09:16:21Z</time></trkpt>
<trkpt lat="50.042206" lon="4.192613"><time>2026-05-03T09:26:21Z</time></trkpt>
<trkpt lat="50.041223" lon="4.192284"><time>2026-05-03T09:36:21Z</time></trkpt>
<trkpt lat="50.040989" lon="4.191776"><time>2026-05-03T09:46:21Z</time></trkpt>
<trkpt lat="50.040475" lon="4.191633"><time>2026-05-03T09:56:21Z</time></trkpt>
<trkpt lat="50.039354" lon="4.189480"><time>2026-05-03T10:06:21Z</time></trkpt>
<trkpt lat="50.038288" lon="4.188936"><time>2026-05-03T10:16:21Z</time></trkpt>
<trkpt lat="50.037925" lon="4.187956"><time>2026-05-03T10:26:21Z</time></trkpt>
<trkpt lat="50.037415" lon="4.187677"><time>2026-05-03T10:36:21Z</time></trkpt>
</trkseg>
</trk>
<trk>
<name>hmmmc47</name>
<cmt>v</cmt>
<desc>Macon Sentier n°47 </desc>
<link href="https://chemins.be/macon/sentier/47"/><trkseg>
<trkpt lat="50.051285" lon="4.209757"><time>2026-05-03T09:16:21Z</time></trkpt>
<trkpt lat="50.051079" lon="4.210211"><time>2026-05-03T09:26:21Z</time></trkpt>
<trkpt lat="50.050633" lon="4.211173"><time>2026-05-03T09:36:21Z</time></trkpt>
<trkpt lat="50.050408" lon="4.211255"><time>2026-05-03T09:46:21Z</time></trkpt>
<trkpt lat="50.049893" lon="4.211361"><time>2026-05-03T09:56:21Z</time></trkpt>
</trkseg>
</trk>
<trk>
<name>hmmmc48</name>
<cmt>q</cmt>
<desc>Macon Sentier n°48 </desc>
<link href="https://chemins.be/macon/sentier/48"/><trkseg>
<trkpt lat="50.050426" lon="4.211301"><time>2026-05-03T09:16:21Z</time></trkpt>
<trkpt lat="50.051732" lon="4.212443"><time>2026-05-03T09:26:21Z</time></trkpt>
</trkseg>
</trk>
<trk>
<name>hmmmc49</name>
<cmt>q</cmt>
<desc>Macon Sentier n°49 </desc>
<link href="https://chemins.be/macon/sentier/49"/><trkseg>
<trkpt lat="50.052270" lon="4.208838"><time>2026-05-03T09:16:21Z</time></trkpt>
<trkpt lat="50.052224" lon="4.208502"><time>2026-05-03T09:26:21Z</time></trkpt>
<trkpt lat="50.052093" lon="4.208347"><time>2026-05-03T09:36:21Z</time></trkpt>
</trkseg>
</trk>
<trk>
<name>hmmmc5</name>
<cmt>v</cmt>
<desc>Macon Chemin n°5 </desc>
<link href="https://chemins.be/macon/chemin/5"/><trkseg>
<trkpt lat="50.061888" lon="4.222312"><time>2026-05-03T09:16:21Z</time></trkpt>
<trkpt lat="50.062074" lon="4.220536"><time>2026-05-03T09:26:21Z</time></trkpt>
</trkseg>
</trk>
<trk>
<name>hmmmc50</name>
<cmt>q</cmt>
<desc>Macon Sentier n°50 </desc>
<link href="https://chemins.be/macon/sentier/50"/><trkseg>
<trkpt lat="50.048824" lon="4.204360"><time>2026-05-03T09:16:21Z</time></trkpt>
<trkpt lat="50.048736" lon="4.203288"><time>2026-05-03T09:26:21Z</time></trkpt>
<trkpt lat="50.046978" lon="4.199425"><time>2026-05-03T09:36:21Z</time></trkpt>
<trkpt lat="50.044812" lon="4.195983"><time>2026-05-03T09:46:21Z</time></trkpt>
<trkpt lat="50.044067" lon="4.194258"><time>2026-05-03T09:56:21Z</time></trkpt>
</trkseg>
</trk>
<trk>
<name>hmmmc51</name>
<cmt>q</cmt>
<desc>Macon Sentier n°51 </desc>
<link href="https://chemins.be/macon/sentier/51"/><trkseg>
<trkpt lat="50.050010" lon="4.205661"><time>2026-05-03T09:16:21Z</time></trkpt>
<trkpt lat="50.049911" lon="4.203893"><time>2026-05-03T09:26:21Z</time></trkpt>
<trkpt lat="50.048103" lon="4.198777"><time>2026-05-03T09:36:21Z</time></trkpt>
<trkpt lat="50.048125" lon="4.196700"><time>2026-05-03T09:46:21Z</time></trkpt>
</trkseg>
</trk>
<trk>
<name>hmmmc52</name>
<cmt>v</cmt>
<desc>Macon Sentier n°52 </desc>
<link href="https://chemins.be/macon/sentier/52"/><trkseg>
<trkpt lat="50.048185" lon="4.196533"><time>2026-05-03T09:16:21Z</time></trkpt>
<trkpt lat="50.048597" lon="4.194955"><time>2026-05-03T09:26:21Z</time></trkpt>
</trkseg></trk>
<trk>
<name>hmmmc52</name>
<cmt>q</cmt>
<desc>Macon Sentier n°52 </desc>
<link href="https://chemins.be/macon/sentier/52"/><trkseg>
<trkpt lat="50.048597" lon="4.194955"><time>2026-05-03T09:26:21Z</time></trkpt>
<trkpt lat="50.048796" lon="4.194190"><time>2026-05-03T09:36:21Z</time></trkpt>
<trkpt lat="50.049182" lon="4.190816"><time>2026-05-03T09:46:21Z</time></trkpt>
<trkpt lat="50.049039" lon="4.185675"><time>2026-05-03T09:56:21Z</time></trkpt>
</trkseg>
</trk>
<trk>
<name>hmmmc53</name>
<cmt>q</cmt>
<desc>Macon Sentier n°53 </desc>
<link href="https://chemins.be/macon/sentier/53"/><trkseg>
<trkpt lat="50.036818" lon="4.188243"><time>2026-05-03T09:16:21Z</time></trkpt>
<trkpt lat="50.034764" lon="4.187220"><time>2026-05-03T09:26:21Z</time></trkpt>
</trkseg>
</trk>
<trk>
<name>hmmmc54</name>
<cmt>q</cmt>
<desc>Macon Sentier n°54 </desc>
<link href="https://chemins.be/macon/sentier/54"/><trkseg>
<trkpt lat="50.038406" lon="4.199916"><time>2026-05-03T09:16:21Z</time></trkpt>
<trkpt lat="50.035939" lon="4.186140"><time>2026-05-03T09:26:21Z</time></trkpt>
</trkseg>
</trk>
<trk>
<name>hmmmc55</name>
<cmt>v</cmt>
<desc>Macon Sentier n°55 </desc>
<link href="https://chemins.be/macon/sentier/55"/><trkseg>
<trkpt lat="50.029908" lon="4.193191"><time>2026-05-03T09:16:21Z</time></trkpt>
<trkpt lat="50.032134" lon="4.209136"><time>2026-05-03T09:26:21Z</time></trkpt>
<trkpt lat="50.032961" lon="4.215638"><time>2026-05-03T09:36:21Z</time></trkpt>
</trkseg>
</trk>
<trk>
<name>hmmmc56</name>
<cmt>q</cmt>
<desc>Macon Sentier n°56 </desc>
<link href="https://chemins.be/macon/sentier/56"/><trkseg>
<trkpt lat="50.027178" lon="4.215334"><time>2026-05-03T09:16:21Z</time></trkpt>
<trkpt lat="50.023098" lon="4.202700"><time>2026-05-03T09:26:21Z</time></trkpt>
</trkseg>
</trk>
<trk>
<name>hmmmc57</name>
<cmt>q</cmt>
<desc>Macon Sentier n°57 </desc>
<link href="https://chemins.be/macon/sentier/57"/><trkseg>
<trkpt lat="50.026242" lon="4.212306"><time>2026-05-03T09:16:21Z</time></trkpt>
<trkpt lat="50.024020" lon="4.212127"><time>2026-05-03T09:26:21Z</time></trkpt>
<trkpt lat="50.013393" lon="4.211276"><time>2026-05-03T09:36:21Z</time></trkpt>
</trkseg>
</trk>
<trk>
<name>hmmmc58</name>
<cmt>q</cmt>
<desc>Macon Sentier n°58 </desc>
<link href="https://chemins.be/macon/sentier/58"/><trkseg>
<trkpt lat="50.011659" lon="4.214671"><time>2026-05-03T09:16:21Z</time></trkpt>
<trkpt lat="50.013208" lon="4.223061"><time>2026-05-03T09:26:21Z</time></trkpt>
</trkseg>
</trk>
<trk>
<name>hmmmc59</name>
<cmt>q</cmt>
<desc>Macon Sentier n°59 </desc>
<link href="https://chemins.be/macon/sentier/59"/><trkseg>
<trkpt lat="50.007161" lon="4.208554"><time>2026-05-03T09:16:21Z</time></trkpt>
<trkpt lat="50.007685" lon="4.216472"><time>2026-05-03T09:26:21Z</time></trkpt>
<trkpt lat="50.008150" lon="4.223896"><time>2026-05-03T09:36:21Z</time></trkpt>
</trkseg>
</trk>
<trk>
<name>hmmmc6</name>
<cmt>v</cmt>
<desc>Macon Chemin n°6 </desc>
<link href="https://chemins.be/macon/chemin/6"/><trkseg>
<trkpt lat="50.036817" lon="4.214900"><time>2026-05-03T09:16:21Z</time></trkpt>
<trkpt lat="50.035747" lon="4.215085"><time>2026-05-03T09:26:21Z</time></trkpt>
<trkpt lat="50.034670" lon="4.216344"><time>2026-05-03T09:36:21Z</time></trkpt>
<trkpt lat="50.033789" lon="4.216543"><time>2026-05-03T09:46:21Z</time></trkpt>
<trkpt lat="50.032988" lon="4.215652"><time>2026-05-03T09:56:21Z</time></trkpt>
<trkpt lat="50.032178" lon="4.215236"><time>2026-05-03T10:06:21Z</time></trkpt>
<trkpt lat="50.025912" lon="4.215060"><time>2026-05-03T10:16:21Z</time></trkpt>
<trkpt lat="50.023477" lon="4.216266"><time>2026-05-03T10:26:21Z</time></trkpt>
<trkpt lat="50.022416" lon="4.216048"><time>2026-05-03T10:36:21Z</time></trkpt>
<trkpt lat="50.021382" lon="4.216303"><time>2026-05-03T10:46:21Z</time></trkpt>
<trkpt lat="50.020061" lon="4.217102"><time>2026-05-03T10:56:21Z</time></trkpt>
<trkpt lat="50.018525" lon="4.217637"><time>2026-05-03T11:06:21Z</time></trkpt>
<trkpt lat="50.017066" lon="4.216656"><time>2026-05-03T11:16:21Z</time></trkpt>
<trkpt lat="50.015633" lon="4.216585"><time>2026-05-03T11:26:21Z</time></trkpt>
<trkpt lat="50.014963" lon="4.216797"><time>2026-05-03T11:36:21Z</time></trkpt>
</trkseg>
</trk>
<trk>
<name>hmmmc8</name>
<cmt>v</cmt>
<desc>Macon Chemin n°8 </desc>
<link href="https://chemins.be/macon/chemin/8"/><trkseg>
<trkpt lat="50.048934" lon="4.204745"><time>2026-05-03T09:16:21Z</time></trkpt>
<trkpt lat="50.048822" lon="4.204372"><time>2026-05-03T09:26:21Z</time></trkpt>
</trkseg>
</trk>
<trk>
<name>hmmmci1</name>
<cmt>v</cmt>
<desc>Macon Sentier n°i1 </desc>
<link href="https://chemins.be/macon/sentier/i1"/><trkseg>
<trkpt lat="50.038382" lon="4.202108"><time>2026-05-03T09:16:21Z</time></trkpt>
<trkpt lat="50.038139" lon="4.201871"><time>2026-05-03T09:26:21Z</time></trkpt>
<trkpt lat="50.037805" lon="4.200993"><time>2026-05-03T09:36:21Z</time></trkpt>
<trkpt lat="50.037435" lon="4.200045"><time>2026-05-03T09:46:21Z</time></trkpt>
</trkseg>
</trk>
<trk>
<name>hmmmci2</name>
<cmt>v</cmt>
<desc>Macon Chemin n°i2 </desc>
<link href="https://chemins.be/macon/chemin/i2"/><trkseg>
<trkpt lat="50.021346" lon="4.203447"><time>2026-05-03T09:16:21Z</time></trkpt>
<trkpt lat="50.017780" lon="4.211887"><time>2026-05-03T09:26:21Z</time></trkpt>
<trkpt lat="50.015628" lon="4.216563"><time>2026-05-03T09:36:21Z</time></trkpt>
</trkseg>
</trk>
<trk>
<name>hmmmcL156</name>
<cmt>v</cmt>
<desc>Macon Chemin n°L156 Ravel 156</desc>
<link href="https://chemins.be/macon/chemin/L156"/><trkseg>
<trkpt lat="50.026672" lon="4.193719"><time>2026-05-03T09:16:21Z</time></trkpt>
<trkpt lat="50.025615" lon="4.202264"><time>2026-05-03T09:26:21Z</time></trkpt>
<trkpt lat="50.024869" lon="4.208393"><time>2026-05-03T09:36:21Z</time></trkpt>
<trkpt lat="50.024646" lon="4.209789"><time>2026-05-03T09:46:21Z</time></trkpt>
<trkpt lat="50.023975" lon="4.212359"><time>2026-05-03T09:56:21Z</time></trkpt>
<trkpt lat="50.022380" lon="4.216090"><time>2026-05-03T10:06:21Z</time></trkpt>
</trkseg>
</trk>
</gpx>